Location: ??
(35.4032°N, 139.3073°E)
Time: 11:58:21
(UTC+00:00)

Cosmos 2227 Rocket - Pass Details

Date: 13 April 2024
Orbit: 837 x 846 km, 71.0° (Epoch: 26 May)

Event Time Altitude Azimuth Distance (km) Brightness Sun altitude
Rises 12:52:40 0° 348° (NNW) 3,411 6.1 -38.2°
Reaches altitude 10° 12:55:22 10° 358° (N) 2,472 5.2 -38.5°
Enters shadow 12:57:11 19° 10° (N) 1,910 4.4 -38.7°
